Location: Le Moustier
(44.1000°N, 6.5167°E)
Time: 15:19:05
(UTC+00:00)

MOS 1 Rocket - Pass Details

Date: 13 December 2025
Orbit: 609 x 814 km, 97.4° (Epoch: 19 January)

Event Time Altitude Azimuth Distance (km) Brightness Sun altitude
Rises 17:02:09 0° 156° (SSE) 3,118 6.6 -11.5°
Reaches altitude 10° 17:04:23 10° 153° (SSE) 2,232 5.9 -11.8°
Maximum altitude 17:09:15 63° 73° (ENE) 854 3.5 -12.7°
Drops below altitude 10° 17:14:25 10° 354° (N) 2,363 5.9 -13.5°
Sets 17:16:49 0° 351° (N) 3,316 6.7 -13.9°
